Terminal Aerodrome Forecast
Issued by NWS Wilmington, NC

Home | Current Version | Previous Version | Text Only | Print | Product List | Glossary On
Versions: 1 2 3 4 5 6 7 8 9 10 11 12 13
686
FTUS42 KILM 240603 CCA
TAFMYR
TAF COR
KMYR 240603Z 2405/2506 07010KT P6SM VCSH OVC012
      TEMPO 2406/2410 3SM SHRA OVC005
     FM241500 12011G19KT 4SM SHRA OVC020
     FM242300 12010KT 2SM +SHRA OVC006
     FM250300 16009KT 2SM +SHRA BKN003
      AMD LTD TO CLD VIS AND WIND TIL 241000=

USA.gov is the U.S. government's official web portal to all federal, state and local government web resources and services.